Year,Month,Day,Hour,Minute,Value (Times are PST for temperature in C)
2023,05,14,00,00,17.00
2023,05,14,00,01,17.00
2023,05,14,00,02,16.90
2023,05,14,00,03,16.90
2023,05,14,00,04,16.90
2023,05,14,00,05,16.90
2023,05,14,00,06,16.90
2023,05,14,00,07,16.80
2023,05,14,00,08,16.80
2023,05,14,00,09,16.80
2023,05,14,00,10,16.80
2023,05,14,00,11,16.70
2023,05,14,00,12,16.70
2023,05,14,00,13,16.70
2023,05,14,00,14,16.70
2023,05,14,00,15,16.70
2023,05,14,00,16,16.70
2023,05,14,00,17,16.70
2023,05,14,00,18,16.70
2023,05,14,00,19,16.70
2023,05,14,00,20,16.60
2023,05,14,00,21,16.60
2023,05,14,00,22,16.60
2023,05,14,00,23,16.60
2023,05,14,00,24,16.50
2023,05,14,00,25,16.40
2023,05,14,00,26,16.40
2023,05,14,00,27,16.40
2023,05,14,00,28,16.40
2023,05,14,00,29,16.40
2023,05,14,00,30,16.40
2023,05,14,00,31,16.30
2023,05,14,00,32,16.30
2023,05,14,00,33,16.30
2023,05,14,00,34,16.20
2023,05,14,00,35,16.20
2023,05,14,00,36,16.20
2023,05,14,00,37,16.20
2023,05,14,00,38,16.10
2023,05,14,00,39,16.10
2023,05,14,00,40,16.10
2023,05,14,00,41,16.10
2023,05,14,00,42,16.10
2023,05,14,00,43,16.10
2023,05,14,00,44,16.10
2023,05,14,00,45,15.90
2023,05,14,00,46,15.90
2023,05,14,00,47,15.90
2023,05,14,00,48,15.90
2023,05,14,00,49,15.90
2023,05,14,00,50,15.80
2023,05,14,00,51,15.80
2023,05,14,00,52,15.80
2023,05,14,00,53,15.80
2023,05,14,00,54,15.80
2023,05,14,00,55,15.80
2023,05,14,00,56,15.80
2023,05,14,00,57,15.80
2023,05,14,00,58,15.70
2023,05,14,00,59,15.70
2023,05,14,01,00,15.70
2023,05,14,01,01,15.60
2023,05,14,01,02,15.60
2023,05,14,01,03,15.60
2023,05,14,01,04,15.60
2023,05,14,01,05,15.50
2023,05,14,01,06,15.50
2023,05,14,01,07,15.50
2023,05,14,01,08,15.50
2023,05,14,01,09,15.50
2023,05,14,01,10,15.50
2023,05,14,01,11,15.50
2023,05,14,01,12,15.50
2023,05,14,01,13,15.50
2023,05,14,01,14,15.40
2023,05,14,01,15,15.40
2023,05,14,01,16,15.40
2023,05,14,01,17,15.40
2023,05,14,01,18,15.40
2023,05,14,01,19,15.30
2023,05,14,01,20,15.30
2023,05,14,01,21,15.30
2023,05,14,01,22,15.30
2023,05,14,01,23,15.30
2023,05,14,01,24,15.30
2023,05,14,01,25,15.20
2023,05,14,01,26,15.20
2023,05,14,01,27,15.20
2023,05,14,01,28,15.20
2023,05,14,01,29,15.20
2023,05,14,01,30,15.20
2023,05,14,01,31,15.20
2023,05,14,01,32,15.10
2023,05,14,01,33,15.10
2023,05,14,01,34,15.10
2023,05,14,01,35,15.10
2023,05,14,01,36,15.10
2023,05,14,01,37,15.10
2023,05,14,01,38,15.00
2023,05,14,01,39,15.00
2023,05,14,01,40,15.00
2023,05,14,01,41,15.00
2023,05,14,01,42,15.00
2023,05,14,01,43,15.00
2023,05,14,01,44,14.90
2023,05,14,01,45,14.90
2023,05,14,01,46,14.90
2023,05,14,01,47,15.00
2023,05,14,01,48,15.00
2023,05,14,01,49,15.00
2023,05,14,01,50,15.00
2023,05,14,01,51,15.00
2023,05,14,01,52,15.00
2023,05,14,01,53,15.00
2023,05,14,01,54,15.00
2023,05,14,01,55,15.00
2023,05,14,01,56,14.90
2023,05,14,01,57,14.90
2023,05,14,01,58,14.90
2023,05,14,01,59,14.90
2023,05,14,02,00,14.90
2023,05,14,02,01,14.90
2023,05,14,02,02,14.90
2023,05,14,02,03,15.00
2023,05,14,02,04,15.00
2023,05,14,02,05,15.00
2023,05,14,02,06,15.00
2023,05,14,02,07,15.10
2023,05,14,02,08,15.10
2023,05,14,02,09,15.10
2023,05,14,02,10,15.10
2023,05,14,02,11,15.10
2023,05,14,02,12,15.10
2023,05,14,02,13,15.10
2023,05,14,02,14,15.10
2023,05,14,02,15,15.00
2023,05,14,02,16,15.00
2023,05,14,02,17,15.00
2023,05,14,02,18,15.00
2023,05,14,02,19,14.90
2023,05,14,02,20,14.90
2023,05,14,02,21,14.90
2023,05,14,02,22,14.90
2023,05,14,02,23,14.90
2023,05,14,02,24,14.80
2023,05,14,02,25,14.80
2023,05,14,02,26,14.80
2023,05,14,02,27,14.80
2023,05,14,02,28,14.80
2023,05,14,02,29,14.80
2023,05,14,02,30,14.80
2023,05,14,02,31,14.80
2023,05,14,02,32,14.80
2023,05,14,02,33,14.80
2023,05,14,02,34,14.80
2023,05,14,02,35,14.80
2023,05,14,02,36,14.80
2023,05,14,02,37,14.70
2023,05,14,02,38,14.70
2023,05,14,02,39,14.70
2023,05,14,02,40,14.60
2023,05,14,02,41,14.60
2023,05,14,02,42,14.60
2023,05,14,02,43,14.50
2023,05,14,02,44,14.50
2023,05,14,02,45,14.50
2023,05,14,02,46,14.40
2023,05,14,02,47,14.40
2023,05,14,02,48,14.40
2023,05,14,02,49,14.40
2023,05,14,02,50,14.30
2023,05,14,02,51,14.30
2023,05,14,02,52,14.30
2023,05,14,02,53,14.30
2023,05,14,02,54,14.30
2023,05,14,02,55,14.20
2023,05,14,02,56,14.20
2023,05,14,02,57,14.20
2023,05,14,02,58,14.20
2023,05,14,02,59,14.20
2023,05,14,03,00,14.20
2023,05,14,03,01,14.20
2023,05,14,03,02,14.20
2023,05,14,03,03,14.20
2023,05,14,03,04,14.20
2023,05,14,03,05,14.20
2023,05,14,03,06,14.10
2023,05,14,03,07,14.10
2023,05,14,03,08,14.10
2023,05,14,03,09,14.10
2023,05,14,03,10,14.00
2023,05,14,03,11,14.00
2023,05,14,03,12,14.00
2023,05,14,03,13,14.00
2023,05,14,03,14,14.00
2023,05,14,03,15,13.90
2023,05,14,03,16,13.90
2023,05,14,03,17,13.90
2023,05,14,03,18,13.90
2023,05,14,03,19,13.90
2023,05,14,03,20,13.90
2023,05,14,03,21,13.90
2023,05,14,03,22,13.90
2023,05,14,03,23,13.80
2023,05,14,03,24,13.80
2023,05,14,03,25,13.80
2023,05,14,03,26,13.80
2023,05,14,03,27,13.80
2023,05,14,03,28,13.80
2023,05,14,03,29,13.70
2023,05,14,03,30,13.70
2023,05,14,03,31,13.70
2023,05,14,03,32,13.70
2023,05,14,03,33,13.70
2023,05,14,03,34,13.70
2023,05,14,03,35,13.70
2023,05,14,03,36,13.70
2023,05,14,03,37,13.70
2023,05,14,03,38,13.70
2023,05,14,03,39,13.60
2023,05,14,03,40,13.60
2023,05,14,03,41,13.60
2023,05,14,03,42,13.60
2023,05,14,03,43,13.60
2023,05,14,03,44,13.60
2023,05,14,03,45,13.60
2023,05,14,03,46,13.60
2023,05,14,03,47,13.60
2023,05,14,03,48,13.60
2023,05,14,03,49,13.60
2023,05,14,03,50,13.60
2023,05,14,03,51,13.60
2023,05,14,03,52,13.50
2023,05,14,03,53,13.50
2023,05,14,03,54,13.50
2023,05,14,03,55,13.50
2023,05,14,03,56,13.50
2023,05,14,03,57,13.50
2023,05,14,03,58,13.50
2023,05,14,03,59,13.40
2023,05,14,04,00,13.40
2023,05,14,04,01,13.40
2023,05,14,04,02,13.40
2023,05,14,04,03,13.40
2023,05,14,04,04,13.40
2023,05,14,04,05,13.40
2023,05,14,04,06,13.40
2023,05,14,04,07,13.40
2023,05,14,04,08,13.30
2023,05,14,04,09,13.30
2023,05,14,04,10,13.30
2023,05,14,04,11,13.30
2023,05,14,04,12,13.30
2023,05,14,04,13,13.30
2023,05,14,04,14,13.30
2023,05,14,04,15,13.30
2023,05,14,04,16,13.30
2023,05,14,04,17,13.30
2023,05,14,04,18,13.30
2023,05,14,04,19,13.30
2023,05,14,04,20,13.30
2023,05,14,04,21,13.20
2023,05,14,04,22,13.20
2023,05,14,04,23,13.20
2023,05,14,04,24,13.20
2023,05,14,04,25,13.20
2023,05,14,04,26,13.20
2023,05,14,04,27,13.20
2023,05,14,04,28,13.20
2023,05,14,04,29,13.20
2023,05,14,04,30,13.20
2023,05,14,04,31,13.20
2023,05,14,04,32,13.20
2023,05,14,04,33,13.20
2023,05,14,04,34,13.20
2023,05,14,04,35,13.20
2023,05,14,04,36,13.30
2023,05,14,04,37,13.30
2023,05,14,04,38,13.30
2023,05,14,04,39,13.30
2023,05,14,04,40,13.30
2023,05,14,04,41,13.30
2023,05,14,04,42,13.30
2023,05,14,04,43,13.30
2023,05,14,04,44,13.30
2023,05,14,04,45,13.30
2023,05,14,04,46,13.30
2023,05,14,04,47,13.30
2023,05,14,04,48,13.30
2023,05,14,04,49,13.30
2023,05,14,04,50,13.30
2023,05,14,04,51,13.30
2023,05,14,04,52,13.30
2023,05,14,04,53,13.30
2023,05,14,04,54,13.30
2023,05,14,04,55,13.30
2023,05,14,04,56,13.30
2023,05,14,04,57,13.30
2023,05,14,04,58,13.30
2023,05,14,04,59,13.30
2023,05,14,05,00,13.30
2023,05,14,05,01,13.30
2023,05,14,05,02,13.30
2023,05,14,05,03,13.30
2023,05,14,05,04,13.40
2023,05,14,05,05,13.40
2023,05,14,05,06,13.50
2023,05,14,05,07,13.50
2023,05,14,05,08,13.50
2023,05,14,05,09,13.60
2023,05,14,05,10,13.60
2023,05,14,05,11,13.60
2023,05,14,05,12,13.70
2023,05,14,05,13,13.70
2023,05,14,05,14,13.70
2023,05,14,05,15,13.70
2023,05,14,05,16,13.80
2023,05,14,05,17,13.80
2023,05,14,05,18,13.80
2023,05,14,05,19,13.90
2023,05,14,05,20,13.90
2023,05,14,05,21,13.90
2023,05,14,05,22,13.90
2023,05,14,05,23,14.00
2023,05,14,05,24,14.00
2023,05,14,05,25,14.00
2023,05,14,05,26,14.00
2023,05,14,05,27,14.00
2023,05,14,05,28,14.00
2023,05,14,05,29,14.00
2023,05,14,05,30,14.00
2023,05,14,05,31,14.00
2023,05,14,05,32,14.00
2023,05,14,05,33,14.00
2023,05,14,05,34,14.00
2023,05,14,05,35,14.10
2023,05,14,05,36,14.20
2023,05,14,05,37,14.20
2023,05,14,05,38,14.20
2023,05,14,05,39,14.20
2023,05,14,05,40,14.20
2023,05,14,05,41,14.20
2023,05,14,05,42,14.30
2023,05,14,05,43,14.30
2023,05,14,05,44,14.30
2023,05,14,05,45,14.30
2023,05,14,05,46,14.30
2023,05,14,05,47,14.20
2023,05,14,05,48,14.20
2023,05,14,05,49,14.20
2023,05,14,05,50,14.20
2023,05,14,05,51,14.20
2023,05,14,05,52,14.20
2023,05,14,05,53,14.10
2023,05,14,05,54,14.10
2023,05,14,05,55,14.00
2023,05,14,05,56,14.00
2023,05,14,05,57,14.00
2023,05,14,05,58,14.00
2023,05,14,05,59,14.00
2023,05,14,06,00,14.00
2023,05,14,06,01,14.00
2023,05,14,06,02,14.00
2023,05,14,06,03,14.00
2023,05,14,06,04,13.90
2023,05,14,06,05,13.90
2023,05,14,06,06,13.90
2023,05,14,06,07,13.90
2023,05,14,06,08,13.90
2023,05,14,06,09,13.80
2023,05,14,06,10,13.80
2023,05,14,06,11,13.80
2023,05,14,06,12,13.80
2023,05,14,06,13,13.80
2023,05,14,06,14,13.80
2023,05,14,06,15,13.80
2023,05,14,06,16,13.80
2023,05,14,06,17,13.80
2023,05,14,06,18,13.80
2023,05,14,06,19,13.80
2023,05,14,06,20,13.80
2023,05,14,06,21,13.80
2023,05,14,06,22,13.80
2023,05,14,06,23,13.80
2023,05,14,06,24,13.90
2023,05,14,06,25,13.90
2023,05,14,06,26,13.90
2023,05,14,06,27,13.90
2023,05,14,06,28,14.00
2023,05,14,06,29,14.00
2023,05,14,06,30,14.10
2023,05,14,06,31,14.10
2023,05,14,06,32,14.20
2023,05,14,06,33,14.20
2023,05,14,06,34,14.30
2023,05,14,06,35,14.40
2023,05,14,06,36,14.50
2023,05,14,06,37,14.60
2023,05,14,06,38,14.60
2023,05,14,06,39,14.70
2023,05,14,06,40,14.70
2023,05,14,06,41,14.80
2023,05,14,06,42,14.80
2023,05,14,06,43,14.80
2023,05,14,06,44,14.90
2023,05,14,06,45,14.90
2023,05,14,06,46,15.00
2023,05,14,06,47,15.00
2023,05,14,06,48,15.00
2023,05,14,06,49,15.10
2023,05,14,06,50,15.10
2023,05,14,06,51,15.10
2023,05,14,06,52,15.10
2023,05,14,06,53,15.20
2023,05,14,06,54,15.20
2023,05,14,06,55,15.20
2023,05,14,06,56,15.20
2023,05,14,06,57,15.30
2023,05,14,06,58,15.30
2023,05,14,06,59,15.30
2023,05,14,07,00,15.30
2023,05,14,07,01,15.30
2023,05,14,07,02,15.30
2023,05,14,07,03,15.40
2023,05,14,07,04,15.40
2023,05,14,07,05,15.40
2023,05,14,07,06,15.50
2023,05,14,07,07,15.50
2023,05,14,07,08,15.60
2023,05,14,07,09,15.60
2023,05,14,07,10,15.70
2023,05,14,07,11,15.80
2023,05,14,07,12,15.90
2023,05,14,07,13,16.10
2023,05,14,07,14,16.20
2023,05,14,07,15,16.20
2023,05,14,07,16,16.30
2023,05,14,07,17,16.40
2023,05,14,07,18,16.50
2023,05,14,07,19,16.60
2023,05,14,07,20,16.70
2023,05,14,07,21,16.70
2023,05,14,07,22,16.80
2023,05,14,07,23,16.90
2023,05,14,07,24,16.90
2023,05,14,07,25,17.00
2023,05,14,07,26,17.10
2023,05,14,07,27,17.20
2023,05,14,07,28,17.30
2023,05,14,07,29,17.40
2023,05,14,07,30,17.50
2023,05,14,07,31,17.50
2023,05,14,07,32,17.70
2023,05,14,07,33,17.80
2023,05,14,07,34,17.90
2023,05,14,07,35,18.00
2023,05,14,07,36,18.10
2023,05,14,07,37,18.20
2023,05,14,07,38,18.40
2023,05,14,07,39,18.60
2023,05,14,07,40,18.70
2023,05,14,07,41,18.80
2023,05,14,07,42,18.90
2023,05,14,07,43,18.90
2023,05,14,07,44,19.00
2023,05,14,07,45,19.10
2023,05,14,07,46,19.10
2023,05,14,07,47,19.20
2023,05,14,07,48,19.30
2023,05,14,07,49,19.30
2023,05,14,07,50,19.40
2023,05,14,07,51,19.40
2023,05,14,07,52,19.50
2023,05,14,07,53,19.60
2023,05,14,07,54,19.60
2023,05,14,07,55,19.70
2023,05,14,07,56,19.80
2023,05,14,07,57,19.90
2023,05,14,07,58,19.90
2023,05,14,07,59,20.00
2023,05,14,08,00,20.10
2023,05,14,08,01,20.20
2023,05,14,08,02,20.30
2023,05,14,08,03,20.30
2023,05,14,08,04,20.40
2023,05,14,08,05,20.40
2023,05,14,08,06,20.40
2023,05,14,08,07,20.40
2023,05,14,08,08,20.40
2023,05,14,08,09,20.40
2023,05,14,08,10,20.40
2023,05,14,08,11,20.40
2023,05,14,08,12,20.40
2023,05,14,08,13,20.40
2023,05,14,08,14,20.50
2023,05,14,08,15,20.50
2023,05,14,08,16,20.50
2023,05,14,08,17,20.50
2023,05,14,08,18,20.50
2023,05,14,08,19,20.60
2023,05,14,08,20,20.60
2023,05,14,08,21,20.70
2023,05,14,08,22,20.70
2023,05,14,08,23,20.80
2023,05,14,08,24,20.80
2023,05,14,08,25,20.90
2023,05,14,08,26,20.90
2023,05,14,08,27,20.90
2023,05,14,08,28,21.00
2023,05,14,08,29,21.20
2023,05,14,08,30,21.30
2023,05,14,08,31,21.40
2023,05,14,08,32,21.50
2023,05,14,08,33,21.60
2023,05,14,08,34,21.70
2023,05,14,08,35,21.80
2023,05,14,08,36,21.90
2023,05,14,08,37,22.00
2023,05,14,08,38,22.10
2023,05,14,08,39,22.20
2023,05,14,08,40,22.30
2023,05,14,08,41,22.40
2023,05,14,08,42,22.40
2023,05,14,08,43,22.40
2023,05,14,08,44,22.40
2023,05,14,08,45,22.50
2023,05,14,08,46,22.50
2023,05,14,08,47,22.60
2023,05,14,08,48,22.70
2023,05,14,08,49,22.80
2023,05,14,08,50,22.80
2023,05,14,08,51,22.90
2023,05,14,08,52,22.90
2023,05,14,08,53,22.90
2023,05,14,08,54,22.90
2023,05,14,08,55,22.90
2023,05,14,08,56,23.00
2023,05,14,08,57,23.10
2023,05,14,08,58,23.10
2023,05,14,08,59,23.10
2023,05,14,09,00,23.10
2023,05,14,09,01,23.10
2023,05,14,09,02,23.20
2023,05,14,09,03,23.20
2023,05,14,09,04,23.20
2023,05,14,09,05,23.20
2023,05,14,09,06,23.20
2023,05,14,09,07,23.30
2023,05,14,09,08,23.30
2023,05,14,09,09,23.30
2023,05,14,09,10,23.30
2023,05,14,09,11,23.30
2023,05,14,09,12,23.40
2023,05,14,09,13,23.50
2023,05,14,09,14,23.60
2023,05,14,09,15,23.60
2023,05,14,09,16,23.60
2023,05,14,09,17,23.60
2023,05,14,09,18,23.50
2023,05,14,09,19,23.30
2023,05,14,09,20,22.90
2023,05,14,09,21,22.60
2023,05,14,09,22,22.40
2023,05,14,09,23,22.10
2023,05,14,09,24,21.80
2023,05,14,09,25,21.60
2023,05,14,09,26,21.60
2023,05,14,09,27,21.50
2023,05,14,09,28,21.40
2023,05,14,09,29,21.40
2023,05,14,09,30,21.40
2023,05,14,09,31,21.40
2023,05,14,09,32,21.40
2023,05,14,09,33,21.40
2023,05,14,09,34,21.60
2023,05,14,09,35,21.70
2023,05,14,09,36,21.90
2023,05,14,09,37,22.10
2023,05,14,09,38,22.30
2023,05,14,09,39,22.40
2023,05,14,09,40,22.50
2023,05,14,09,41,22.30
2023,05,14,09,42,22.10
2023,05,14,09,43,22.00
2023,05,14,09,44,22.00
2023,05,14,09,45,21.90
2023,05,14,09,46,22.00
2023,05,14,09,47,22.10
2023,05,14,09,48,22.20
2023,05,14,09,49,22.30
2023,05,14,09,50,22.30
2023,05,14,09,51,22.40
2023,05,14,09,52,22.50
2023,05,14,09,53,22.60
2023,05,14,09,54,22.80
2023,05,14,09,55,22.80
2023,05,14,09,56,22.90
2023,05,14,09,57,22.90
2023,05,14,09,58,23.00
2023,05,14,09,59,23.10
2023,05,14,10,00,23.20
2023,05,14,10,01,23.30
2023,05,14,10,02,23.50
2023,05,14,10,03,23.60
2023,05,14,10,04,23.70
2023,05,14,10,05,23.90
2023,05,14,10,06,24.00
2023,05,14,10,07,24.10
2023,05,14,10,08,24.30
2023,05,14,10,09,24.40
2023,05,14,10,10,24.60
2023,05,14,10,11,24.80
2023,05,14,10,12,24.90
2023,05,14,10,13,24.70
2023,05,14,10,14,24.50
2023,05,14,10,15,24.30
2023,05,14,10,16,24.10
2023,05,14,10,17,24.10
2023,05,14,10,18,24.10
2023,05,14,10,19,24.10
2023,05,14,10,20,24.20
2023,05,14,10,21,24.20
2023,05,14,10,22,24.30
2023,05,14,10,23,24.40
2023,05,14,10,24,24.50
2023,05,14,10,25,24.50
2023,05,14,10,26,24.70
2023,05,14,10,27,24.80
2023,05,14,10,28,24.90
2023,05,14,10,29,24.90
2023,05,14,10,30,25.10
2023,05,14,10,31,25.20
2023,05,14,10,32,25.30
2023,05,14,10,33,25.40
2023,05,14,10,34,25.60
2023,05,14,10,35,25.70
2023,05,14,10,36,25.70
2023,05,14,10,37,25.80
2023,05,14,10,38,25.90
2023,05,14,10,39,26.00
2023,05,14,10,40,26.10
2023,05,14,10,41,26.30
2023,05,14,10,42,26.40
2023,05,14,10,43,26.50
2023,05,14,10,44,26.60
2023,05,14,10,45,26.70
2023,05,14,10,46,26.70
2023,05,14,10,47,26.70
2023,05,14,10,48,26.70
2023,05,14,10,49,26.80
2023,05,14,10,50,26.80
2023,05,14,10,51,26.90
2023,05,14,10,52,26.90
2023,05,14,10,53,26.90
2023,05,14,10,54,27.00
2023,05,14,10,55,27.10
2023,05,14,10,56,27.20
2023,05,14,10,57,27.30
2023,05,14,10,58,27.30
2023,05,14,10,59,27.30
2023,05,14,11,00,27.30
2023,05,14,11,01,27.20
2023,05,14,11,02,27.10
2023,05,14,11,03,27.10
2023,05,14,11,04,26.90
2023,05,14,11,05,26.90
2023,05,14,11,06,26.90
2023,05,14,11,07,26.90
2023,05,14,11,08,26.90
2023,05,14,11,09,26.90
2023,05,14,11,10,26.70
2023,05,14,11,11,26.50
2023,05,14,11,12,26.20
2023,05,14,11,13,26.00
2023,05,14,11,14,25.90
2023,05,14,11,15,25.80
2023,05,14,11,16,25.70
2023,05,14,11,17,25.60
2023,05,14,11,18,25.70
2023,05,14,11,19,25.80
2023,05,14,11,20,25.80
2023,05,14,11,21,25.90
2023,05,14,11,22,26.00
2023,05,14,11,23,26.10
2023,05,14,11,24,26.20
2023,05,14,11,25,26.20
2023,05,14,11,26,26.20
2023,05,14,11,27,26.30
2023,05,14,11,28,26.40
2023,05,14,11,29,26.40
2023,05,14,11,30,26.30
2023,05,14,11,31,26.30
2023,05,14,11,32,26.30
2023,05,14,11,33,26.30
2023,05,14,11,34,26.20
2023,05,14,11,35,26.10
2023,05,14,11,36,26.00
2023,05,14,11,37,25.90
2023,05,14,11,38,25.70
2023,05,14,11,39,25.70
2023,05,14,11,40,25.70
2023,05,14,11,41,25.60
2023,05,14,11,42,25.60
2023,05,14,11,43,25.60
2023,05,14,11,44,25.70
2023,05,14,11,45,25.70
2023,05,14,11,46,25.80
2023,05,14,11,47,25.80
2023,05,14,11,48,25.90
2023,05,14,11,49,25.90
2023,05,14,11,50,25.90
2023,05,14,11,51,26.00
2023,05,14,11,52,26.10
2023,05,14,11,53,26.20
2023,05,14,11,54,26.30
2023,05,14,11,55,26.30
2023,05,14,11,56,26.40
2023,05,14,11,57,26.40
2023,05,14,11,58,26.50
2023,05,14,11,59,26.60
2023,05,14,12,00,26.60
2023,05,14,12,01,26.80
2023,05,14,12,02,26.80
2023,05,14,12,03,26.70
2023,05,14,12,04,26.70
2023,05,14,12,05,26.80
2023,05,14,12,06,26.80
2023,05,14,12,07,26.90
2023,05,14,12,08,27.00
2023,05,14,12,09,27.10
2023,05,14,12,10,27.20
2023,05,14,12,11,27.30
2023,05,14,12,12,27.30
2023,05,14,12,13,27.30
2023,05,14,12,14,27.30
2023,05,14,12,15,27.30
2023,05,14,12,16,27.30
2023,05,14,12,17,27.30
2023,05,14,12,18,27.30
2023,05,14,12,19,27.30
2023,05,14,12,20,27.30
2023,05,14,12,21,27.40
2023,05,14,12,22,27.40
2023,05,14,12,23,27.40
2023,05,14,12,24,27.40
2023,05,14,12,25,27.30
2023,05,14,12,26,27.20
2023,05,14,12,27,27.10
2023,05,14,12,28,27.00
2023,05,14,12,29,26.90
2023,05,14,12,30,26.90
2023,05,14,12,31,26.90
2023,05,14,12,32,27.00
2023,05,14,12,33,27.20
2023,05,14,12,34,27.30
2023,05,14,12,35,27.30
2023,05,14,12,36,27.30
2023,05,14,12,37,27.30
2023,05,14,12,38,27.40
2023,05,14,12,39,27.50
2023,05,14,12,40,27.60
2023,05,14,12,41,27.60
2023,05,14,12,42,27.70
2023,05,14,12,43,27.70
2023,05,14,12,44,27.70
2023,05,14,12,45,27.60
2023,05,14,12,46,27.60
2023,05,14,12,47,27.60
2023,05,14,12,48,27.60
2023,05,14,12,49,27.70
2023,05,14,12,50,27.80
2023,05,14,12,51,27.90
2023,05,14,12,52,27.90
2023,05,14,12,53,28.00
2023,05,14,12,54,28.10
2023,05,14,12,55,28.10
2023,05,14,12,56,28.20
2023,05,14,12,57,28.20
2023,05,14,12,58,28.10
2023,05,14,12,59,28.00
2023,05,14,13,00,27.90
2023,05,14,13,01,27.90
2023,05,14,13,02,27.80
2023,05,14,13,03,27.80
2023,05,14,13,04,27.80
2023,05,14,13,05,27.80
2023,05,14,13,06,27.90
2023,05,14,13,07,28.10
2023,05,14,13,08,28.10
2023,05,14,13,09,28.10
2023,05,14,13,10,28.10
2023,05,14,13,11,28.10
2023,05,14,13,12,28.10
2023,05,14,13,13,28.20
2023,05,14,13,14,28.20
2023,05,14,13,15,28.20
2023,05,14,13,16,28.20
2023,05,14,13,17,28.20
2023,05,14,13,18,28.20
2023,05,14,13,19,28.10
2023,05,14,13,20,28.00
2023,05,14,13,21,28.10
2023,05,14,13,22,28.00
2023,05,14,13,23,28.00
2023,05,14,13,24,28.00
2023,05,14,13,25,28.00
2023,05,14,13,26,28.00
2023,05,14,13,27,28.00
2023,05,14,13,28,28.10
2023,05,14,13,29,28.00
2023,05,14,13,30,28.00
2023,05,14,13,31,28.00
2023,05,14,13,32,28.10
2023,05,14,13,33,28.30
2023,05,14,13,34,28.40
2023,05,14,13,35,28.50
2023,05,14,13,36,28.60
2023,05,14,13,37,28.50
2023,05,14,13,38,28.40
2023,05,14,13,39,28.40
2023,05,14,13,40,28.40
2023,05,14,13,41,28.30
2023,05,14,13,42,28.20
2023,05,14,13,43,28.20
2023,05,14,13,44,28.20
2023,05,14,13,45,28.10
2023,05,14,13,46,28.10
2023,05,14,13,47,28.10
2023,05,14,13,48,28.10
2023,05,14,13,49,28.10
2023,05,14,13,50,28.20
2023,05,14,13,51,28.30
2023,05,14,13,52,28.40
2023,05,14,13,53,28.60
2023,05,14,13,54,28.70
2023,05,14,13,55,28.80
2023,05,14,13,56,28.80
2023,05,14,13,57,28.90
2023,05,14,13,58,28.90
2023,05,14,13,59,28.90
2023,05,14,14,00,28.90
2023,05,14,14,01,28.80
2023,05,14,14,02,28.80
2023,05,14,14,03,28.70
2023,05,14,14,04,28.60
2023,05,14,14,05,28.60
2023,05,14,14,06,28.60
2023,05,14,14,07,28.60
2023,05,14,14,08,28.50
2023,05,14,14,09,28.40
2023,05,14,14,10,28.30
2023,05,14,14,11,28.30
2023,05,14,14,12,28.30
2023,05,14,14,13,28.40
2023,05,14,14,14,28.50
2023,05,14,14,15,28.60
2023,05,14,14,16,28.60
2023,05,14,14,17,28.70
2023,05,14,14,18,28.70
2023,05,14,14,19,28.70
2023,05,14,14,20,28.70
2023,05,14,14,21,28.70
2023,05,14,14,22,28.70
2023,05,14,14,23,28.50
2023,05,14,14,24,28.40
2023,05,14,14,25,28.20
2023,05,14,14,26,28.20
2023,05,14,14,27,28.20
2023,05,14,14,28,28.30
2023,05,14,14,29,28.30
2023,05,14,14,30,28.30
2023,05,14,14,31,28.30
2023,05,14,14,32,28.30
2023,05,14,14,33,28.40
2023,05,14,14,34,28.50
2023,05,14,14,35,28.60
2023,05,14,14,36,28.70
2023,05,14,14,37,28.70
2023,05,14,14,38,28.80
2023,05,14,14,39,28.90
2023,05,14,14,40,28.90
2023,05,14,14,41,29.00
2023,05,14,14,42,29.10
2023,05,14,14,43,29.20
2023,05,14,14,44,29.20
2023,05,14,14,45,29.20
2023,05,14,14,46,29.20
2023,05,14,14,47,29.20
2023,05,14,14,48,29.10
2023,05,14,14,49,29.00
2023,05,14,14,50,28.90
2023,05,14,14,51,28.90
2023,05,14,14,52,29.10
2023,05,14,14,53,29.10
2023,05,14,14,54,29.30
2023,05,14,14,55,29.30
2023,05,14,14,56,29.30
2023,05,14,14,57,29.30
2023,05,14,14,58,29.20
2023,05,14,14,59,29.20
2023,05,14,15,00,29.20
2023,05,14,15,01,29.20
2023,05,14,15,02,29.20
2023,05,14,15,03,29.20
2023,05,14,15,04,29.20
2023,05,14,15,05,29.30
2023,05,14,15,06,29.40
2023,05,14,15,07,29.40
2023,05,14,15,08,29.50
2023,05,14,15,09,29.50
2023,05,14,15,10,29.50
2023,05,14,15,11,29.50
2023,05,14,15,12,29.60
2023,05,14,15,13,29.70
2023,05,14,15,14,29.70
2023,05,14,15,15,29.70
2023,05,14,15,16,29.60
2023,05,14,15,17,29.60
2023,05,14,15,18,29.60
2023,05,14,15,19,29.60
2023,05,14,15,20,29.70
2023,05,14,15,21,29.70
2023,05,14,15,22,29.80
2023,05,14,15,23,29.90
2023,05,14,15,24,30.00
2023,05,14,15,25,30.10
2023,05,14,15,26,30.10
2023,05,14,15,27,30.10
2023,05,14,15,28,30.00
2023,05,14,15,29,30.00
2023,05,14,15,30,30.10
2023,05,14,15,31,30.10
2023,05,14,15,32,30.10
2023,05,14,15,33,30.10
2023,05,14,15,34,30.10
2023,05,14,15,35,30.20
2023,05,14,15,36,30.20
2023,05,14,15,37,30.30
2023,05,14,15,38,30.30
2023,05,14,15,39,30.30
2023,05,14,15,40,30.40
2023,05,14,15,41,30.40
2023,05,14,15,42,30.40
2023,05,14,15,43,30.60
2023,05,14,15,44,30.60
2023,05,14,15,45,30.40
2023,05,14,15,46,30.30
2023,05,14,15,47,30.20
2023,05,14,15,48,30.10
2023,05,14,15,49,30.10
2023,05,14,15,50,30.10
2023,05,14,15,51,30.10
2023,05,14,15,52,30.10
2023,05,14,15,53,30.20
2023,05,14,15,54,30.20
2023,05,14,15,55,30.30
2023,05,14,15,56,30.40
2023,05,14,15,57,30.40
2023,05,14,15,58,30.30
2023,05,14,15,59,30.30
2023,05,14,16,00,30.30
2023,05,14,16,01,30.30
2023,05,14,16,02,30.30
2023,05,14,16,03,30.20
2023,05,14,16,04,30.20
2023,05,14,16,05,30.20
2023,05,14,16,06,30.20
2023,05,14,16,07,30.20
2023,05,14,16,08,30.20
2023,05,14,16,09,30.20
2023,05,14,16,10,30.30
2023,05,14,16,11,30.30
2023,05,14,16,12,30.40
2023,05,14,16,13,30.60
2023,05,14,16,14,30.60
2023,05,14,16,15,30.70
2023,05,14,16,16,30.80
2023,05,14,16,17,30.70
2023,05,14,16,18,30.70
2023,05,14,16,19,30.70
2023,05,14,16,20,30.70
2023,05,14,16,21,30.80
2023,05,14,16,22,30.60
2023,05,14,16,23,30.50
2023,05,14,16,24,30.20
2023,05,14,16,25,30.10
2023,05,14,16,26,30.00
2023,05,14,16,27,29.90
2023,05,14,16,28,29.90
2023,05,14,16,29,29.90
2023,05,14,16,30,30.00
2023,05,14,16,31,30.10
2023,05,14,16,32,30.20
2023,05,14,16,33,30.30
2023,05,14,16,34,30.50
2023,05,14,16,35,30.60
2023,05,14,16,36,30.70
2023,05,14,16,37,30.60
2023,05,14,16,38,30.60
2023,05,14,16,39,30.60
2023,05,14,16,40,30.60
2023,05,14,16,41,30.60
2023,05,14,16,42,30.40
2023,05,14,16,43,30.40
2023,05,14,16,44,30.30
2023,05,14,16,45,30.20
2023,05,14,16,46,30.10
2023,05,14,16,47,30.10
2023,05,14,16,48,30.10
2023,05,14,16,49,30.10
2023,05,14,16,50,30.20
2023,05,14,16,51,30.20
2023,05,14,16,52,30.30
2023,05,14,16,53,30.30
2023,05,14,16,54,30.40
2023,05,14,16,55,30.60
2023,05,14,16,56,30.60
2023,05,14,16,57,30.70
2023,05,14,16,58,30.60
2023,05,14,16,59,30.60
2023,05,14,17,00,30.60
2023,05,14,17,01,30.40
2023,05,14,17,02,30.30
2023,05,14,17,03,30.30
2023,05,14,17,04,30.20
2023,05,14,17,05,30.10
2023,05,14,17,06,30.20
2023,05,14,17,07,30.20
2023,05,14,17,08,30.30
2023,05,14,17,09,30.30
2023,05,14,17,10,30.50
2023,05,14,17,11,30.60
2023,05,14,17,12,30.60
2023,05,14,17,13,30.60
2023,05,14,17,14,30.60
2023,05,14,17,15,30.60
2023,05,14,17,16,30.60
2023,05,14,17,17,30.60
2023,05,14,17,18,30.60
2023,05,14,17,19,30.60